Location: Carson
(33.8314°N, 118.2820°W)
Time: 12:37:01
(UTC+00:00)

Cosmos 1933 - Pass Details

Date: 23 November 2020
Orbit: 546 x 564 km, 82.5° (Epoch: 21 January)

Event Time Altitude Azimuth Distance (km) Brightness Sun altitude
Rises 14:02:52 0° 339° (NNW) 2,760 6.5 -6.7°
Reaches altitude 10° 14:05:18 10° 327° (NNW) 1,861 5.5 -6.2°
Maximum altitude 14:08:44 26° 270° (W) 1,118 4.4 -5.6°
Drops below altitude 10° 14:12:09 10° 213° (SSW) 1,850 5.9 -4.9°
Sets 14:14:34 0° 200° (SSW) 2,740 6.9 -4.4°
